DW0479 Weather Reports


Display with metric or nautical units.
time (UTC)temp
F
wind
direction
speed
MPH
gust
MPH
rain 1hr
in
rain 24hr
in
rain mn
in
humidity
%
barometer
mb
20260904045426 77 154 0.0 0.0 0.00 0.05 0.00 94 1014.6
20260904045353 77 154 0.0 0.0 0.00 0.05 0.00 94 1014.7
20260904043913 77 154 0.0 0.0 0.00 0.05 0.00 94 1014.8
20260904042426 77 154 0.0 0.0 0.00 0.05 0.00 94 1014.7
20260904041427 77 154 0.0 0.0 0.00 0.05 0.00 94 1014.7
20260904040427 77 154 0.0 0.0 0.00 0.05 0.00 94 1014.7
20260904035425 77 154 0.0 0.0 0.00 0.05 0.05 94 1014.6
20260904034419 77 154 0.0 0.0 0.01 0.05 0.05 94 1014.7
20260904033420 77 154 0.0 0.0 0.01 0.05 0.05 93 1014.8
20260904032419 77 154 0.0 0.0 0.01 0.05 0.05 93 1014.7
20260904031417 77 154 0.0 2.0 0.01 0.05 0.05 93 1014.6
20260904030904 77 154 1.0 4.0 0.01 0.05 0.05 93 1014.6
20260904025405 77 155 1.0 3.0 0.01 0.05 0.05 93 1014.6
20260904024405 77 146 1.0 4.0 0.00 0.04 0.04 93 1014.4
20260904023403 77 156 1.0 5.0 0.00 0.04 0.04 93 1014.5
20260904022403 78 149 2.0 4.0 0.00 0.04 0.04 93 1014.4
20260904021403 78 148 1.0 4.0 0.00 0.04 0.04 93 1014.4
20260904020403 78 152 1.0 3.0 0.00 0.04 0.04 93 1014.4
20260904015404 78 152 1.0 3.0 0.00 0.04 0.04 93 1014.6
20260904014845 78 152 0.0 3.0 0.00 0.04 0.04 93 1014.6
20260904013401 78 152 1.0 3.0 0.00 0.04 0.04 93 1014.7
20260904012400 78 152 1.0 3.0 0.00 0.04 0.04 93 1014.6
20260904011401 78 152 1.0 3.0 0.01 0.04 0.04 93 1014.5
20260904010400 77 152 0.0 2.0 0.02 0.04 0.04 93 1014.4
20260904005401 78 152 1.0 4.0 0.03 0.04 0.04 93 1014.3
20260904004356 77 152 1.0 3.0 0.03 0.04 0.04 92 1014.2
20260904003834 77 152 0.0 2.0 0.04 0.04 0.04 92 1014.2
20260904002357 78 152 0.0 1.0 0.04 0.04 0.04 92 1014.2
20260904001356 78 152 0.0 2.0 0.03 0.03 0.03 92 1014.2
20260904000358 78 152 1.0 4.0 0.02 0.02 0.02 92 1014.0
20260903235840 78 154 1.0 4.0 0.01 0.01 0.01 91 1014.0
20260903234356 78 163 2.0 4.0 0.01 0.01 0.01 90 1014.0
20260903233355 78 142 2.0 8.0 0.00 0.00 0.00 89 1014.1
20260903232353 78 156 1.0 4.0 0.00 0.00 0.00 88 1014.3
20260903231355 78 157 1.0 6.0 0.00 0.00 0.00 86 1014.2
20260903230353 79 136 4.0 9.0 0.00 0.00 0.00 86 1014.1
20260903225839 79 149 3.0 8.0 0.00 0.00 0.00 86 1013.9
20260903224355 79 152 2.0 9.0 0.00 0.00 0.00 86 1013.9
20260903223823 79 158 4.0 10.0 0.00 0.00 0.00 84 1013.9
20260903222348 79 158 4.0 10.0 0.00 0.00 0.00 82 1013.8
20260903221347 81 173 4.0 9.0 0.00 0.00 0.00 82 1013.6
20260903220831 82 140 6.0 13.0 0.00 0.00 0.00 80 1013.5
20260903215348 84 150 4.0 13.0 0.00 0.00 0.00 80 1013.5
20260903214825 85 129 5.0 11.0 0.00 0.00 0.00 80 1013.1
20260903213343 85 100 5.0 12.0 0.00 0.00 0.00 80 1013.0
20260903212344 86 133 4.0 12.0 0.00 0.00 0.00 78 1013.0
20260903211815 86 88 4.0 12.0 0.00 0.00 0.00 75 1012.5
20260903210334 87 116 5.0 12.0 0.00 0.00 0.00 72 1013.0
20260903205334 89 104 6.0 12.0 0.00 0.00 0.00 71 1012.7
20260903204333 89 112 5.0 13.0 0.00 0.00 0.00 71 1012.5
20260903203335 88 123 5.0 13.0 0.00 0.00 0.00 73 1012.3
20260903202807 89 79 7.0 14.0 0.00 0.00 0.00 75 1012.4
20260903201326 88 98 7.0 15.0 0.00 0.00 0.00 74 1012.3
20260903200324 90 114 7.0 16.0 0.00 0.00 0.00 71 1012.5
20260903195325 91 94 7.0 16.0 0.00 0.00 0.00 71 1012.6
20260903194311 92 81 4.0 13.0 0.00 0.00 0.00 71 1012.8
20260903193310 93 61 6.0 13.0 0.00 0.00 0.00 69 1013.0
20260903193237 94 351 5.0 11.0 0.00 0.00 0.00 67 1013.2
20260903191308 92 29 5.0 11.0 0.00 0.00 0.00 71 1013.4
20260903190743 92 29 5.0 11.0 0.00 0.00 0.00 70 1013.4
20260903190231 92 67 5.0 10.0 0.00 0.00 0.00 72 1013.4
20260903184307 93 79 4.0 11.0 0.00 0.00 0.00 69 1013.2
20260903183307 92 23 5.0 10.0 0.00 0.00 0.00 71 1013.3
20260903182308 93 23 3.0 8.0 0.00 0.00 0.00 72 1013.3
20260903181259 90 10 6.0 11.0 0.00 0.00 0.00 73 1013.5
20260903180259 90 357 7.0 13.0 0.00 0.00 0.00 76 1013.6
20260903175259 92 42 3.0 10.0 0.00 0.00 0.00 70 1013.9
20260903174301 92 157 2.0 7.0 0.00 0.00 0.00 68 1014.0
20260903173248 91 113 2.0 6.0 0.00 0.00 0.00 67 1014.1
20260903172247 91 258 2.0 6.0 0.00 0.00 0.00 70 1014.1
20260903172203 90 136 3.0 8.0 0.00 0.00 0.00 69 1014.1
20260903170248 91 186 3.0 7.0 0.00 0.00 0.00 68 1014.2
20260903165249 90 107 3.0 8.0 0.00 0.00 0.00 69 1014.5
20260903164246 91 193 3.0 8.0 0.00 0.00 0.00 68 1014.6
20260903163246 89 195 3.0 7.0 0.00 0.00 0.00 70 1014.9
20260903162244 89 190 3.0 10.0 0.00 0.00 0.00 70 1015.0
20260903161246 89 124 3.0 8.0 0.00 0.00 0.00 74 1015.0
20260903160231 88 200 3.0 7.0 0.00 0.00 0.00 75 1015.1
20260903160151 87 138 2.0 6.0 0.00 0.00 0.00 76 1015.1
20260903154231 88 163 2.0 7.0 0.00 0.00 0.00 75 1015.0
20260903153231 88 110 3.0 7.0 0.00 0.00 0.00 77 1015.1
20260903152228 87 175 3.0 8.0 0.00 0.00 0.00 75 1015.2
20260903151226 87 165 4.0 8.0 0.00 0.00 0.00 75 1015.2
20260903150711 87 163 4.0 8.0 0.00 0.00 0.00 77 1015.3
20260903145227 88 174 3.0 8.0 0.00 0.00 0.00 77 1015.2
20260903144219 87 168 3.0 9.0 0.00 0.00 0.00 77 1015.2
20260903143218 87 202 3.0 7.0 0.00 0.00 0.00 78 1015.1
20260903142218 86 173 2.0 8.0 0.00 0.00 0.00 80 1015.2
20260903141220 86 233 2.0 5.0 0.00 0.00 0.00 85 1015.0
20260903140703 84 182 2.0 6.0 0.00 0.00 0.00 83 1014.9
20260903135219 85 135 3.0 7.0 0.00 0.00 0.00 83 1014.9
20260903134220 84 143 2.0 6.0 0.00 0.00 0.00 86 1014.9
20260903133218 84 110 1.0 7.0 0.00 0.00 0.00 86 1014.9
20260903132217 84 110 1.0 7.0 0.00 0.00 0.00 85 1014.9
20260903131217 84 92 2.0 4.0 0.00 0.00 0.00 87 1014.9
20260903130216 83 102 2.0 6.0 0.00 0.00 0.00 88 1014.8
20260903125659 82 51 2.0 5.0 0.00 0.00 0.00 89 1014.6
20260903124700 82 48 2.0 4.0 0.00 0.00 0.00 91 1014.6
20260903123208 81 48 2.0 5.0 0.00 0.00 0.00 93 1014.7
20260903122208 80 50 2.0 5.0 0.00 0.00 0.00 93 1014.5
20260903121207 80 84 2.0 6.0 0.00 0.00 0.00 94 1014.5
20260903121133 79 28 1.0 3.0 0.00 0.00 0.00 94 1014.4
20260903115207 78 28 0.0 2.0 0.00 0.00 0.00 94 1014.3
20260903115119 78 28 0.0 3.0 0.00 0.00 0.00 94 1014.1
20260903113157 78 28 1.0 3.0 0.00 0.00 0.00 94 1013.8
20260903112635 78 28 1.0 3.0 0.00 0.00 0.00 94 1013.6
20260903111154 78 28 2.0 4.0 0.00 0.00 0.00 94 1013.6
20260903110153 77 27 2.0 4.0 0.00 0.00 0.00 94 1013.5
20260903105154 78 27 2.0 5.0 0.00 0.00 0.00 94 1013.4
20260903104152 78 10 2.0 4.0 0.00 0.00 0.00 94 1013.3
20260903103151 78 116 2.0 3.0 0.00 0.00 0.00 94 1013.1
20260903102618 78 116 0.0 2.0 0.00 0.00 0.00 94 1013.2
20260903101138 77 116 0.0 0.0 0.00 0.00 0.00 94 1013.3
20260903100137 77 116 0.0 1.0 0.00 0.00 0.00 94 1013.4
20260903095136 77 116 0.0 0.0 0.00 0.00 0.00 94 1013.4
20260903094137 77 116 0.0 0.0 0.00 0.00 0.00 94 1013.3
20260903093136 77 116 0.0 1.0 0.00 0.00 0.00 94 1013.2
20260903092136 77 116 0.0 0.0 0.00 0.00 0.00 94 1013.2
20260903091610 77 116 0.0 0.0 0.00 0.00 0.00 94 1013.2
20260903090136 77 116 0.0 0.0 0.00 0.00 0.00 94 1013.1
20260903085617 77 116 0.0 1.0 0.00 0.00 0.00 94 1013.1
20260903084131 78 116 0.0 0.0 0.00 0.00 0.00 94 1013.1
20260903083133 78 116 0.0 0.0 0.00 0.00 0.00 94 1013.2
20260903082132 78 116 0.0 0.0 0.00 0.00 0.00 93 1013.1
20260903081133 78 116 0.0 0.0 0.00 0.00 0.00 93 1013.1
20260903080119 78 116 0.0 0.0 0.00 0.00 0.00 93 1013.2
20260903075604 78 116 0.0 0.0 0.00 0.00 0.00 93 1013.2
20260903074117 78 116 0.0 0.0 0.00 0.00 0.00 93 1013.2
20260903074044 78 116 0.0 0.0 0.00 0.00 0.00 93 1013.2
20260903072122 78 116 0.0 0.0 0.00 0.00 0.00 93 1013.5
20260903071103 78 116 0.0 2.0 0.00 0.00 0.00 93 1013.6
20260903070541 78 116 1.0 3.0 0.00 0.00 0.00 93 1013.5
20260903065104 79 116 1.0 2.0 0.00 0.00 0.00 93 1013.6
20260903064105 79 116 1.0 2.0 0.00 0.00 0.00 92 1013.6
20260903063106 79 116 1.0 3.0 0.00 0.00 0.00 92 1013.5
20260903062055 79 116 0.0 0.0 0.00 0.00 0.00 92 1013.6
20260903061054 79 116 0.0 0.0 0.00 0.00 0.00 92 1013.7
20260903060053 79 116 0.0 0.0 0.00 0.00 0.00 92 1013.8
20260903060012 80 116 0.0 2.0 0.00 0.00 0.00 92 1013.9
20260903054055 79 116 0.0 2.0 0.00 0.00 0.00 91 1013.9
20260903053052 80 116 0.0 1.0 0.00 0.00 0.00 91 1014.0
20260903052526 80 116 0.0 2.0 0.00 0.00 0.00 91 1014.1
20260903051051 80 116 0.0 3.0 0.00 0.00 0.00 91 1014.2
20260903050053 80 116 1.0 3.0 0.00 0.00 0.00 91 1014.3